Location: Sun City Center
(27.6996°N, 82.3528°W)
Time: 13:46:24
(UTC-04:00)

Envisat - Visible Passes

Search period start: 23 July 2018 00:00
Search period end: 02 August 2018 00:00
Orbit: 764 x 766 km, 98.2° (Epoch: 22 July)

Date Brightness Start Highest point End Pass type
(mag) Time Alt. Az. Time Alt. Az. Time Alt. Az.
23 Jul 3.1 20:53:13 10° S 20:58:17 83° WSW 21:03:23 10° NNW visible
24 Jul 5.6 21:57:34 10° SW 22:00:44 17° W 22:03:55 10° NW visible
25 Jul 4.2 21:19:06 10° S 21:23:52 42° W 21:28:40 10° NNW visible
26 Jul 3.0 20:42:06 10° SSE 20:47:09 76° ENE 20:52:13 10° N visible
27 Jul 5.3 21:45:39 10° SSW 21:49:31 22° W 21:53:24 10° NW visible
28 Jul 3.7 21:07:44 10° S 21:12:41 56° W 21:17:40 10° NNW visible
29 Jul 5.9 22:14:01 10° WSW 22:15:14 11° W 22:16:28 10° W visible
30 Jul 4.9 21:33:57 10° SSW 21:38:18 29° W 21:42:40 10° NW visible
31 Jul 3.2 20:56:28 10° S 21:01:31 74° WSW 21:06:36 10° NNW visible
01 Aug 5.7 22:01:12 10° SW 22:04:00 15° W 22:06:49 10° WNW visible
